Voltar ao catálogo

STARLINK-36944

AtivoComunicaçõesSSO
NORAD 68029·PAYLOAD·🇺🇸 United States

Lançado Mar 1, 2026 de Vandenberg Space Force Base

Loading…

Próximas Passagens (próximas 24 horas)

TLE

AtualizadoSource: CelesTrak SupGP

Época: Sep 14, 2026, 22:44 UTC

1 68029C 26040Q   26257.94770833 -.00055768  00000+0 -17315-2 0  2578
2 68029  97.2854 205.3607 0001865  91.7827  20.1125 15.33460834    18

Acompanhe STARLINK-36944 em tempo real com AllMySat

Download on the App Store